TimeEST,TemperatureF,Dew PointF,Humidity,Sea Level PressureIn,VisibilityMPH,Wind Direction,Wind SpeedMPH,Gust SpeedMPH,PrecipitationIn,Events,Conditions,WindDirDegrees,DateUTC
12:53 AM,23.0,17.1,78,30.10,10.0,Calm,Calm,-,N/A,,Mostly Cloudy,0,2013-03-04 05:53:00
1:53 AM,21.9,16.0,78,30.12,10.0,Calm,Calm,-,N/A,,Mostly Cloudy,0,2013-03-04 06:53:00
2:53 AM,19.9,15.1,81,30.12,10.0,Calm,Calm,-,N/A,,Scattered Clouds,0,2013-03-04 07:53:00
3:53 AM,19.0,14.0,81,30.12,10.0,Calm,Calm,-,N/A,,Clear,0,2013-03-04 08:53:00
4:53 AM,17.1,12.9,84,30.14,9.0,Calm,Calm,-,N/A,,Clear,0,2013-03-04 09:53:00
5:53 AM,15.1,12.0,88,30.16,10.0,Calm,Calm,-,N/A,,Clear,0,2013-03-04 10:53:00
6:53 AM,16.0,12.0,84,30.17,10.0,Calm,Calm,-,N/A,,Clear,0,2013-03-04 11:53:00
7:53 AM,21.9,17.1,82,30.19,10.0,Calm,Calm,-,N/A,,Clear,0,2013-03-04 12:53:00
8:53 AM,25.0,18.0,75,30.19,10.0,Calm,Calm,-,N/A,,Clear,0,2013-03-04 13:53:00
9:53 AM,28.9,17.1,61,30.19,10.0,West,8.1,-,N/A,,Clear,280,2013-03-04 14:53:00
10:53 AM,32.0,16.0,52,30.18,10.0,WNW,5.8,-,N/A,,Clear,300,2013-03-04 15:53:00
11:53 AM,34.0,15.1,46,30.17,10.0,Variable,5.8,-,N/A,,Clear,0,2013-03-04 16:53:00
12:53 PM,36.0,15.1,43,30.14,10.0,Variable,3.5,-,N/A,,Clear,0,2013-03-04 17:53:00
1:53 PM,37.0,16.0,42,30.12,10.0,SSW,5.8,-,N/A,,Clear,210,2013-03-04 18:53:00
2:53 PM,39.0,16.0,39,30.10,10.0,WNW,4.6,-,N/A,,Clear,290,2013-03-04 19:53:00
3:53 PM,37.9,15.1,39,30.10,10.0,WNW,3.5,-,N/A,,Clear,290,2013-03-04 20:53:00
4:53 PM,39.9,16.0,38,30.09,10.0,Calm,Calm,-,N/A,,Clear,0,2013-03-04 21:53:00
5:53 PM,37.9,15.1,39,30.09,10.0,Calm,Calm,-,N/A,,Clear,0,2013-03-04 22:53:00
6:53 PM,33.1,24.1,70,30.10,10.0,Calm,Calm,-,N/A,,Clear,0,2013-03-04 23:53:00
7:53 PM,32.0,24.1,73,30.10,10.0,Calm,Calm,-,N/A,,Clear,0,2013-03-05 00:53:00
8:53 PM,30.0,21.0,69,30.09,10.0,Calm,Calm,-,N/A,,Scattered Clouds,0,2013-03-05 01:53:00
9:53 PM,30.9,25.0,79,30.07,10.0,Calm,Calm,-,N/A,,Mostly Cloudy,0,2013-03-05 02:53:00
10:53 PM,32.0,25.0,75,30.08,10.0,Calm,Calm,-,N/A,,Overcast,0,2013-03-05 03:53:00
11:53 PM,33.1,21.9,64,30.08,10.0,Calm,Calm,-,N/A,,Overcast,0,2013-03-05 04:53:00